| time (UTC) | temp F | wind direction | speed MPH | gust MPH | rain 1hr in | rain 24hr in | rain mn in | humidity % | barometer mb |
| 20260502163846 | 65 | 75 | 0.0 | 4.0 | 0.00 | 0.00 | 0.00 | 76 | 1022.2 |
| 20260502162846 | 64 | 30 | 0.0 | 5.0 | 0.00 | 0.00 | 0.00 | 76 | 1022.2 |
| 20260502161816 | 64 | 319 | 1.0 | 4.0 | 0.00 | 0.00 | 0.00 | 78 | 1022.3 |
| 20260502160815 | 63 | 47 | 1.0 | 4.0 | 0.00 | 0.00 | 0.00 | 79 | 1022.1 |
| 20260502151816 | 60 | 40 | 0.0 | 4.0 | 0.00 | 0.00 | 0.00 | 84 | 1021.8 |
| 20260502150815 | 60 | 355 | 2.0 | 9.0 | 0.00 | 0.00 | 0.00 | 84 | 1021.9 |
| 20260502122844 | 53 | 307 | 0.0 | 0.0 | 0.00 | 0.00 | 0.00 | 89 | 1020.1 |
| 20260502121814 | 53 | 307 | 0.0 | 0.0 | 0.00 | 0.00 | 0.00 | 89 | 1020.0 |
| 20260502120845 | 53 | 307 | 0.0 | 0.0 | 0.00 | 0.00 | 0.00 | 89 | 1020.0 |
| 20260502115844 | 53 | 307 | 0.0 | 0.0 | 0.00 | 0.00 | 0.00 | 89 | 1019.9 |
| 20260502114844 | 53 | 307 | 0.0 | 0.0 | 0.00 | 0.00 | 0.00 | 89 | 1019.7 |
| 20260502113844 | 54 | 307 | 0.0 | 0.0 | 0.00 | 0.00 | 0.00 | 88 | 1019.6 |
| 20260502112844 | 54 | 307 | 0.0 | 1.0 | 0.00 | 0.00 | 0.00 | 88 | 1019.5 |
| 20260502111844 | 54 | 307 | 0.0 | 2.0 | 0.00 | 0.00 | 0.00 | 88 | 1019.4 |
| 20260502110844 | 54 | 307 | 0.0 | 2.0 | 0.00 | 0.00 | 0.00 | 88 | 1019.3 |
| 20260502105844 | 54 | 307 | 0.0 | 4.0 | 0.00 | 0.00 | 0.00 | 88 | 1019.0 |
| 20260502104844 | 54 | 316 | 0.0 | 5.0 | 0.00 | 0.00 | 0.00 | 89 | 1018.9 |
| 20260502103844 | 54 | 300 | 5.0 | 5.0 | 0.00 | 0.00 | 0.00 | 89 | 1018.9 |
| 20260502102844 | 54 | 320 | 0.0 | 2.0 | 0.00 | 0.00 | 0.00 | 89 | 1019.0 |
| 20260502101844 | 54 | 320 | 0.0 | 3.0 | 0.00 | 0.00 | 0.00 | 89 | 1018.8 |
| 20260502100844 | 54 | 327 | 0.0 | 2.0 | 0.00 | 0.00 | 0.00 | 89 | 1018.8 |
| 20260502090843 | 54 | 330 | 1.0 | 2.0 | 0.00 | 0.00 | 0.00 | 88 | 1017.9 |
| 20260502070842 | 56 | 67 | 0.0 | 0.0 | 0.00 | 0.00 | 0.00 | 88 | 1017.5 |
| 20260502065842 | 56 | 40 | 0.0 | 0.0 | 0.00 | 0.00 | 0.00 | 88 | 1017.3 |
| 20260502064842 | 56 | 47 | 0.0 | 0.0 | 0.00 | 0.00 | 0.00 | 88 | 1017.5 |
| 20260502063842 | 56 | 24 | 0.0 | 0.0 | 0.00 | 0.00 | 0.00 | 88 | 1017.5 |
| 20260502062842 | 56 | 5 | 0.0 | 0.0 | 0.00 | 0.00 | 0.00 | 88 | 1017.6 |
| 20260502061842 | 56 | 40 | 0.0 | 0.0 | 0.00 | 0.00 | 0.00 | 88 | 1017.6 |
| 20260502060842 | 56 | 47 | 0.0 | 1.0 | 0.00 | 0.00 | 0.00 | 88 | 1017.7 |
| 20260502055841 | 56 | 311 | 0.0 | 2.0 | 0.00 | 0.00 | 0.00 | 88 | 1017.6 |
| 20260502054841 | 56 | 329 | 1.0 | 2.0 | 0.00 | 0.00 | 0.00 | 88 | 1017.6 |
| 20260502053841 | 56 | 34 | 1.0 | 4.0 | 0.00 | 0.00 | 0.00 | 89 | 1017.3 |
| 20260502052841 | 56 | 49 | 2.0 | 2.0 | 0.00 | 0.00 | 0.00 | 88 | 1017.5 |
| 20260502051841 | 56 | 65 | 1.0 | 4.0 | 0.00 | 0.00 | 0.00 | 88 | 1017.4 |
| 20260502050841 | 56 | 56 | 0.0 | 3.0 | 0.00 | 0.00 | 0.00 | 88 | 1017.5 |
| 20260502045841 | 56 | 51 | 2.0 | 4.0 | 0.00 | 0.00 | 0.00 | 88 | 1017.5 |
| 20260502044841 | 56 | 63 | 2.0 | 5.0 | 0.00 | 0.00 | 0.00 | 89 | 1017.5 |
| 20260502043840 | 56 | 345 | 0.0 | 2.0 | 0.00 | 0.00 | 0.00 | 89 | 1017.4 |
| 20260502042826 | 56 | 313 | 4.0 | 4.0 | 0.00 | 0.00 | 0.00 | 89 | 1017.5 |
| 20260502041827 | 56 | 5 | 2.0 | 9.0 | 0.00 | 0.00 | 0.00 | 89 | 1017.5 |
| 20260502040826 | 56 | 5 | 3.0 | 5.0 | 0.00 | 0.00 | 0.00 | 89 | 1017.5 |
| 20260502035827 | 56 | 5 | 1.0 | 3.0 | 0.00 | 0.00 | 0.00 | 89 | 1017.5 |
| 20260502034827 | 57 | 30 | 0.0 | 2.0 | 0.00 | 0.00 | 0.00 | 90 | 1017.4 |
| 20260502033826 | 57 | 36 | 0.0 | 2.0 | 0.00 | 0.00 | 0.00 | 90 | 1017.5 |
| 20260502032827 | 57 | 148 | 0.0 | 3.0 | 0.00 | 0.00 | 0.00 | 89 | 1017.4 |
| 20260502031826 | 57 | 20 | 1.0 | 4.0 | 0.00 | 0.00 | 0.00 | 89 | 1017.4 |
| 20260502030826 | 57 | 304 | 0.0 | 4.0 | 0.00 | 0.00 | 0.00 | 90 | 1017.2 |
| 20260502025826 | 57 | 41 | 1.0 | 4.0 | 0.00 | 0.00 | 0.00 | 90 | 1017.0 |
| 20260502024826 | 57 | 26 | 2.0 | 3.0 | 0.00 | 0.00 | 0.00 | 90 | 1016.7 |
| 20260502023826 | 57 | 355 | 2.0 | 3.0 | 0.00 | 0.00 | 0.00 | 90 | 1016.3 |
| 20260502022826 | 57 | 47 | 1.0 | 2.0 | 0.00 | 0.00 | 0.00 | 90 | 1015.7 |
| 20260502021825 | 57 | 5 | 0.0 | 3.0 | 0.00 | 0.00 | 0.00 | 90 | 1015.8 |
| 20260502020825 | 57 | 36 | 0.0 | 0.0 | 0.00 | 0.00 | 0.00 | 90 | 1015.8 |
| 20260502015825 | 57 | 46 | 0.0 | 0.0 | 0.00 | 0.00 | 0.00 | 90 | 1016.0 |
| 20260502014825 | 57 | 14 | 0.0 | 4.0 | 0.00 | 0.00 | 0.00 | 90 | 1015.9 |
| 20260502013825 | 57 | 30 | 1.0 | 3.0 | 0.00 | 0.00 | 0.00 | 90 | 1015.6 |
| 20260502012825 | 57 | 305 | 0.0 | 3.0 | 0.00 | 0.00 | 0.00 | 90 | 1015.4 |
| 20260502011825 | 57 | 321 | 0.0 | 3.0 | 0.00 | 0.00 | 0.00 | 90 | 1015.4 |
| 20260502010825 | 57 | 107 | 1.0 | 4.0 | 0.00 | 0.00 | 0.00 | 90 | 1015.3 |
| 20260502005825 | 58 | 337 | 1.0 | 3.0 | 0.00 | 0.00 | 0.00 | 89 | 1014.8 |
| 20260502004825 | 58 | 346 | 2.0 | 3.0 | 0.00 | 0.00 | 0.00 | 89 | 1014.8 |
| 20260502003825 | 58 | 46 | 0.0 | 3.0 | 0.00 | 0.00 | 0.00 | 89 | 1015.2 |
| 20260502002825 | 58 | 327 | 3.0 | 4.0 | 0.00 | 0.00 | 0.00 | 89 | 1015.4 |
| 20260502001825 | 58 | 335 | 0.0 | 5.0 | 0.00 | 0.00 | 0.00 | 89 | 1014.9 |
| 20260502000825 | 59 | 319 | 2.0 | 3.0 | 0.00 | 0.00 | 0.00 | 89 | 1014.6 |
| 20260501235824 | 59 | 355 | 1.0 | 3.0 | 0.00 | 0.00 | 0.00 | 89 | 1014.4 |
| 20260501234824 | 59 | 360 | 1.0 | 3.0 | 0.00 | 0.00 | 0.00 | 89 | 1014.3 |
| 20260501233824 | 60 | 17 | 0.0 | 3.0 | 0.00 | 0.00 | 0.00 | 89 | 1014.3 |
| 20260501232824 | 60 | 315 | 0.0 | 5.0 | 0.00 | 0.00 | 0.00 | 89 | 1014.1 |
| 20260501231824 | 60 | 328 | 1.0 | 6.0 | 0.00 | 0.00 | 0.00 | 90 | 1012.9 |
| 20260501230824 | 60 | 30 | 0.0 | 2.0 | 0.00 | 0.00 | 0.00 | 90 | 1012.2 |
| 20260501225824 | 60 | 53 | 1.0 | 9.0 | 0.00 | 0.00 | 0.00 | 90 | 1012.7 |
| 20260501224824 | 60 | 344 | 1.0 | 5.0 | 0.00 | 0.00 | 0.00 | 90 | 1013.4 |
| 20260501223824 | 61 | 355 | 2.0 | 5.0 | 0.00 | 0.00 | 0.00 | 90 | 1011.6 |
| 20260501222824 | 61 | 54 | 3.0 | 7.0 | 0.00 | 0.00 | 0.00 | 90 | 1011.1 |
| 20260501221824 | 61 | 38 | 1.0 | 5.0 | 0.00 | 0.00 | 0.00 | 90 | 1011.6 |
| 20260501220824 | 61 | 42 | 0.0 | 6.0 | 0.00 | 0.00 | 0.00 | 90 | 1012.2 |
| 20260501215823 | 61 | 49 | 1.0 | 4.0 | 0.00 | 0.00 | 0.00 | 90 | 1011.8 |
| 20260501214823 | 61 | 327 | 0.0 | 6.0 | 0.00 | 0.00 | 0.00 | 89 | 1013.6 |
| 20260501213823 | 61 | 76 | 0.0 | 4.0 | 0.00 | 0.00 | 0.00 | 90 | 1013.2 |
| 20260501212823 | 61 | 36 | 0.0 | 4.0 | 0.00 | 0.00 | 0.00 | 90 | 1012.4 |
| 20260501211823 | 61 | 309 | 0.0 | 3.0 | 0.00 | 0.00 | 0.00 | 90 | 1013.5 |
| 20260501210823 | 61 | 13 | 1.0 | 4.0 | 0.00 | 0.00 | 0.00 | 90 | 1012.4 |
| 20260501205823 | 62 | 355 | 1.0 | 3.0 | 0.00 | 0.00 | 0.00 | 90 | 1011.6 |
| 20260501204823 | 62 | 60 | 1.0 | 4.0 | 0.00 | 0.00 | 0.00 | 90 | 1011.7 |
| 20260501203823 | 62 | 342 | 0.0 | 3.0 | 0.00 | 0.00 | 0.00 | 90 | 1011.7 |
| 20260501202823 | 62 | 360 | 0.0 | 4.0 | 0.00 | 0.00 | 0.00 | 90 | 1011.7 |
| 20260501201824 | 62 | 309 | 0.0 | 5.0 | 0.00 | 0.00 | 0.00 | 90 | 1012.1 |
| 20260501200823 | 62 | 329 | 0.0 | 2.0 | 0.00 | 0.00 | 0.00 | 90 | 1012.3 |
| 20260501195822 | 62 | 333 | 0.0 | 4.0 | 0.00 | 0.00 | 0.00 | 89 | 1012.8 |
| 20260501194822 | 62 | 346 | 1.0 | 2.0 | 0.00 | 0.00 | 0.00 | 89 | 1012.1 |
| 20260501193822 | 62 | 342 | 0.0 | 2.0 | 0.00 | 0.00 | 0.00 | 89 | 1012.5 |
| 20260501192822 | 63 | 33 | 2.0 | 3.0 | 0.00 | 0.00 | 0.00 | 89 | 1012.2 |
| 20260501191822 | 63 | 46 | 0.0 | 4.0 | 0.00 | 0.00 | 0.00 | 90 | 1012.0 |
| 20260501190822 | 63 | 47 | 0.0 | 3.0 | 0.00 | 0.00 | 0.00 | 90 | 1011.2 |
| 20260501185822 | 63 | 80 | 1.0 | 3.0 | 0.00 | 0.00 | 0.00 | 90 | 1011.2 |
| 20260501184822 | 63 | 59 | 0.0 | 3.0 | 0.00 | 0.00 | 0.00 | 90 | 1010.9 |
| 20260501183852 | 63 | 46 | 2.0 | 6.0 | 0.00 | 0.00 | 0.00 | 90 | 1010.6 |
| 20260501182822 | 63 | 64 | 3.0 | 4.0 | 0.00 | 0.00 | 0.00 | 90 | 1010.1 |
| 20260501181822 | 63 | 51 | 1.0 | 10.0 | 0.00 | 0.00 | 0.00 | 90 | 1009.6 |
| 20260501180822 | 63 | 101 | 1.0 | 4.0 | 0.00 | 0.00 | 0.00 | 90 | 1009.4 |
| 20260501175822 | 63 | 55 | 2.0 | 3.0 | 0.00 | 0.00 | 0.00 | 90 | 1010.1 |
| 20260501174821 | 63 | 24 | 1.0 | 2.0 | 0.00 | 0.00 | 0.00 | 91 | 1011.5 |
| 20260501173821 | 63 | 346 | 0.0 | 0.0 | 0.00 | 0.00 | 0.00 | 90 | 1012.4 |
| 20260501172821 | 63 | 348 | 0.0 | 3.0 | 0.00 | 0.00 | 0.00 | 90 | 1012.8 |